DW9069 Weather Reports


Display with metric or nautical units.
time (UTC)temp
F
wind
direction
speed
MPH
gust
MPH
rain 1hr
in
rain 24hr
in
rain mn
in
humidity
%
barometer
mb
20210517140519 53 82 5.0 8.0 0.00 0.00 0.00 72 1009.7
20210517140056 53 86 4.0 7.0 0.00 0.00 0.00 72 1009.8
20210517135518 52 80 4.0 8.0 0.00 0.00 0.00 72 1009.7
20210517135019 52 73 4.0 8.0 0.00 0.00 0.00 72 1009.7
20210517134542 51 79 5.0 8.0 0.00 0.00 0.00 74 1009.7
20210517134040 51 89 3.0 6.0 0.00 0.00 0.00 75 1009.6
20210517133517 50 76 3.0 5.0 0.00 0.00 0.00 76 1009.5
20210517133034 49 72 2.0 5.0 0.00 0.00 0.00 78 1009.5
20210517132527 48 67 3.0 5.0 0.00 0.00 0.00 79 1009.4
20210517132017 48 57 2.0 5.0 0.00 0.00 0.00 80 1009.6
20210517131521 47 38 3.0 6.0 0.00 0.00 0.00 81 1009.6
20210517131016 47 32 3.0 5.0 0.00 0.00 0.00 81 1009.6
20210517130516 46 64 1.0 4.0 0.00 0.00 0.00 82 1009.5
20210517130044 46 64 2.0 4.0 0.00 0.00 0.00 82 1009.4
20210517125515 45 65 2.0 4.0 0.00 0.00 0.00 82 1009.4
20210517125015 45 65 2.0 4.0 0.00 0.00 0.00 84 1009.2
20210517124023 43 65 1.0 3.0 0.00 0.00 0.00 86 1009.2
20210517123514 43 65 1.0 4.0 0.00 0.00 0.00 85 1009.3
20210517123023 43 65 2.0 4.0 0.00 0.00 0.00 86 1009.2
20210517122514 42 69 0.0 3.0 0.00 0.00 0.00 86 1009.3
20210517122017 42 69 0.0 3.0 0.00 0.00 0.00 85 1009.3
20210517121542 42 89 1.0 3.0 0.00 0.00 0.00 84 1009.3
20210517121015 43 89 0.0 2.0 0.00 0.00 0.00 82 1009.3
20210517120510 44 89 0.0 2.0 0.00 0.00 0.00 82 1009.3
20210517120011 44 89 0.0 2.0 0.00 0.00 0.00 81 1009.1
20210517115508 44 89 1.0 4.0 0.00 0.00 0.00 80 1009.1
20210517115007 45 90 1.0 4.0 0.00 0.00 0.00 81 1009.0
20210517114528 45 90 2.0 6.0 0.00 0.00 0.00 80 1008.9
20210517114008 46 92 3.0 6.0 0.00 0.00 0.00 80 1008.8
20210517113505 46 87 2.0 4.0 0.00 0.00 0.00 80 1008.7
20210517113026 46 54 2.0 3.0 0.00 0.00 0.00 79 1008.8
20210517112535 46 34 1.0 4.0 0.00 0.00 0.00 79 1008.9
20210517112003 47 54 2.0 7.0 0.00 0.00 0.00 78 1009.0
20210517111503 47 32 4.0 7.0 0.00 0.00 0.00 79 1009.0
20210517111010 47 35 3.0 8.0 0.00 0.00 0.00 78 1009.1
20210517110506 47 68 2.0 13.0 0.00 0.00 0.00 77 1009.0
20210517110020 47 64 7.0 13.0 0.00 0.00 0.00 78 1009.0
20210517105502 47 74 7.0 11.0 0.00 0.00 0.00 78 1008.9
20210517105000 47 68 4.0 8.0 0.00 0.00 0.00 79 1008.8
20210517104100 46 71 3.0 6.0 0.00 0.00 0.00 79 1008.8
20210517103559 46 63 4.0 6.0 0.00 0.00 0.00 80 1008.9
20210517103131 46 86 4.0 7.0 0.00 0.00 0.00 80 1008.9
20210517102632 46 78 3.0 5.0 0.00 0.00 0.00 80 1008.9
20210517102104 46 77 3.0 5.0 0.00 0.00 0.00 80 1008.9
20210517101654 46 84 3.0 4.0 0.00 0.00 0.00 79 1009.0
20210517101058 46 84 1.0 3.0 0.00 0.00 0.00 78 1009.0
20210517100557 46 84 0.0 2.0 0.00 0.00 0.00 78 1009.0
20210517100153 47 84 0.0 7.0 0.00 0.00 0.00 78 1009.1
20210517095603 46 84 1.0 8.0 0.00 0.00 0.00 79 1009.2
20210517095053 47 83 4.0 8.0 0.00 0.00 0.00 78 1009.3
20210517094629 47 73 3.0 5.0 0.00 0.00 0.00 78 1009.4
20210517094052 47 73 2.0 5.0 0.00 0.00 0.00 78 1009.5
20210517093603 46 81 2.0 5.0 0.00 0.00 0.00 79 1009.5
20210517093151 46 85 2.0 4.0 0.00 0.00 0.00 79 1009.4
20210517092602 46 85 3.0 7.0 0.00 0.00 0.00 80 1009.3
20210517092050 46 85 3.0 7.0 0.00 0.00 0.00 80 1009.3
20210517091652 46 84 2.0 7.0 0.00 0.00 0.00 79 1009.3
20210517091050 46 96 3.0 8.0 0.00 0.00 0.00 79 1009.3
20210517090559 46 86 5.0 8.0 0.00 0.00 0.00 79 1009.4
20210517090122 47 82 5.0 8.0 0.00 0.00 0.00 78 1009.5
20210517085548 48 88 2.0 7.0 0.00 0.00 0.00 77 1009.6
20210517085047 47 88 3.0 7.0 0.00 0.00 0.00 78 1009.7
20210517084708 47 88 4.0 7.0 0.00 0.00 0.00 80 1009.7
20210517084044 46 84 4.0 7.0 0.00 0.00 0.00 81 1009.7
20210517083543 46 107 3.0 4.0 0.00 0.00 0.00 79 1009.7
20210517083102 47 107 1.0 3.0 0.00 0.00 0.00 78 1009.8
20210517082545 46 107 0.0 4.0 0.00 0.00 0.00 79 1009.8
20210517082041 47 107 1.0 6.0 0.00 0.00 0.00 80 1009.9
20210517081628 47 163 1.0 5.0 0.00 0.00 0.00 78 1010.0
20210517081043 47 183 0.0 3.0 0.00 0.00 0.00 79 1010.0
20210517080542 47 183 1.0 3.0 0.00 0.00 0.00 80 1010.0
20210517080103 47 183 0.0 2.0 0.00 0.00 0.00 80 1010.1
20210517075539 47 183 0.0 3.0 0.00 0.00 0.00 82 1010.1
20210517075038 47 183 2.0 3.0 0.00 0.00 0.00 83 1010.1
20210517074639 47 183 1.0 3.0 0.00 0.00 0.00 83 1010.1
20210517074035 47 183 1.0 3.0 0.00 0.00 0.00 83 1010.1
20210517073534 48 183 2.0 3.0 0.00 0.00 0.00 82 1010.1
20210517073127 49 183 0.0 1.0 0.00 0.00 0.00 79 1010.1
20210517072534 50 183 0.0 0.0 0.00 0.00 0.00 79 1010.2
20210517072052 49 183 0.0 3.0 0.00 0.00 0.00 81 1010.2
20210517071608 50 183 1.0 3.0 0.00 0.00 0.00 81 1010.4
20210517071051 49 184 2.0 3.0 0.00 0.00 0.00 81 1010.4
20210517070537 50 184 0.0 3.0 0.00 0.00 0.00 80 1010.3
20210517070129 50 184 0.0 3.0 0.00 0.00 0.00 79 1010.4
20210517065550 50 184 2.0 3.0 0.00 0.00 0.00 81 1010.5
20210517065038 49 184 0.0 4.0 0.00 0.00 0.00 82 1010.5
20210517064600 50 184 2.0 4.0 0.00 0.00 0.00 80 1010.5
20210517064027 52 184 0.0 2.0 0.00 0.00 0.00 74 1010.4
20210517063527 53 184 0.0 3.0 0.00 0.00 0.00 72 1010.2
20210517063120 53 184 1.0 4.0 0.00 0.00 0.00 72 1010.2
20210517062526 53 184 2.0 4.0 0.00 0.00 0.00 74 1010.3
20210517062057 52 184 2.0 3.0 0.00 0.00 0.00 76 1010.3
20210517061608 52 184 0.0 2.0 0.00 0.00 0.00 75 1010.4
20210517061024 52 184 0.0 3.0 0.00 0.00 0.00 75 1010.5
20210517060523 53 184 0.0 5.0 0.00 0.00 0.00 72 1010.5
20210517060108 54 190 1.0 5.0 0.00 0.00 0.00 71 1010.4
20210517055521 53 221 2.0 5.0 0.00 0.00 0.00 73 1010.4
20210517055022 53 221 2.0 6.0 0.00 0.00 0.00 75 1010.3
20210517054549 53 221 4.0 6.0 0.00 0.00 0.00 75 1010.3
20210517054020 53 219 3.0 7.0 0.00 0.00 0.00 74 1010.2
20210517053521 53 227 5.0 7.0 0.00 0.00 0.00 76 1010.2
20210517053027 52 225 5.0 7.0 0.00 0.00 0.00 79 1010.2
20210517052520 52 228 4.0 6.0 0.00 0.00 0.00 80 1010.2
20210517052031 51 232 3.0 5.0 0.00 0.00 0.00 81 1010.1
20210517051555 51 250 2.0 5.0 0.00 0.00 0.00 81 1010.0
20210517051020 51 250 3.0 6.0 0.00 0.00 0.00 80 1010.1
20210517050527 52 272 3.0 4.0 0.00 0.00 0.00 77 1010.2
20210517050044 53 272 3.0 4.0 0.00 0.00 0.00 72 1010.3
20210517045524 55 272 0.0 2.0 0.00 0.00 0.00 67 1010.5
20210517045019 55 272 0.0 2.0 0.00 0.00 0.00 67 1010.5
20210517044521 56 272 0.0 4.0 0.00 0.00 0.00 67 1010.4
20210517044019 56 272 2.0 7.0 0.00 0.00 0.00 66 1010.4
20210517043519 56 272 2.0 7.0 0.00 0.00 0.00 66 1010.5
20210517043028 56 264 3.0 7.0 0.00 0.00 0.00 66 1010.4
20210517042523 57 277 3.0 7.0 0.00 0.00 0.00 64 1010.3
20210517042019 57 273 5.0 7.0 0.00 0.00 0.00 64 1010.3
20210517041030 57 279 5.0 8.0 0.00 0.00 0.00 63 1010.2
20210517040518 58 309 3.0 5.0 0.00 0.00 0.00 61 1010.0
20210517040027 57 244 2.0 4.0 0.00 0.00 0.00 60 1009.7
20210517035518 57 244 0.0 3.0 0.00 0.00 0.00 60 1009.4
20210517035018 57 244 0.0 6.0 0.00 0.00 0.00 61 1009.2
20210517034559 58 244 3.0 8.0 0.00 0.00 0.00 60 1009.0
20210517034028 59 223 4.0 8.0 0.00 0.00 0.00 57 1008.9
20210517033516 60 134 1.0 3.0 0.00 0.00 0.00 51 1008.8
20210517033028 61 123 0.0 5.0 0.00 0.00 0.00 48 1008.6
20210517032526 60 84 3.0 7.0 0.00 0.00 0.00 51 1008.5
20210517032016 60 99 2.0 11.0 0.00 0.00 0.00 51 1008.3
20210517031523 61 200 6.0 11.0 0.00 0.00 0.00 51 1008.2
20210517031029 61 238 5.0 9.0 0.00 0.00 0.00 49 1008.2
20210517030523 63 321 0.0 9.0 0.00 0.00 0.00 40 1008.3
20210517030111 62 325 3.0 13.0 0.00 0.00 0.00 42 1008.3
20210517025516 61 289 8.0 13.0 0.00 0.00 0.00 47 1008.3
20210517025015 61 282 8.0 11.0 0.00 0.00 0.00 48 1008.0
20210517024539 62 24 1.0 6.0 0.00 0.00 0.00 42 1007.7
20210517024020 63 76 2.0 7.0 0.00 0.00 0.00 44 1007.0
20210517023522 63 151 0.0 2.0 0.00 0.00 0.00 41 1006.7
20210517023021 63 151 0.0 6.0 0.00 0.00 0.00 41 1006.6
20210517022514 64 141 1.0 7.0 0.00 0.00 0.00 39 1006.5
20210517022025 64 126 1.0 7.0 0.00 0.00 0.00 38 1006.6
20210517021518 64 144 1.0 7.0 0.00 0.00 0.00 39 1006.5
20210517021038 64 146 2.0 9.0 0.00 0.00 0.00 38 1006.4
20210517020520 65 120 2.0 11.0 0.00 0.00 0.00 38 1006.5
20210517020022 64 167 3.0 13.0 0.00 0.00 0.00 39 1006.5
20210517015516 65 124 4.0 13.0 0.00 0.00 0.00 39 1006.5
20210517015013 65 135 2.0 13.0 0.00 0.00 0.00 39 1006.4
20210517014538 65 148 5.0 11.0 0.00 0.00 0.00 38 1006.4
20210517014012 65 146 5.0 14.0 0.00 0.00 0.00 37 1006.3
20210517013522 65 151 5.0 14.0 0.00 0.00 0.00 38 1006.3
20210517013018 65 158 6.0 14.0 0.00 0.00 0.00 37 1006.2
20210517012517 66 175 6.0 16.0 0.00 0.00 0.00 37 1006.1
20210517012023 66 147 8.0 16.0 0.00 0.00 0.00 38 1006.1
20210517011552 66 151 8.0 17.0 0.00 0.00 0.00 36 1006.1
20210517011019 67 184 5.0 10.0 0.00 0.00 0.00 35 1006.1
20210517010536 67 144 2.0 16.0 0.00 0.00 0.00 35 1006.0
20210517010013 67 161 7.0 16.0 0.00 0.00 0.00 33 1006.0
20210517005517 67 157 5.0 13.0 0.00 0.00 0.00 34 1006.0
20210517005012 68 155 5.0 10.0 0.00 0.00 0.00 33 1006.0
20210517004526 70 215 4.0 9.0 0.00 0.00 0.00 33 1006.1
20210517004011 70 57 0.0 2.0 0.00 0.00 0.00 40 1005.9
20210517003510 70 57 0.0 3.0 0.00 0.00 0.00 44 1005.9
20210517003046 71 57 1.0 3.0 0.00 0.00 0.00 44 1005.9
20210517002535 71 57 0.0 2.0 0.00 0.00 0.00 45 1005.9
20210517002010 71 57 1.0 2.0 0.00 0.00 0.00 35 1005.9
20210517001555 72 57 0.0 1.0 0.00 0.00 0.00 36 1006.0
20210517001010 72 57 0.0 2.0 0.00 0.00 0.00 33 1005.9
20210517000517 72 57 0.0 3.0 0.00 0.00 0.00 31 1006.0
20210517000014 72 57 0.0 4.0 0.00 0.00 0.00 37 1006.0
20210516235534 72 57 2.0 4.0 0.00 0.00 0.00 34 1006.0
20210516235013 72 49 1.0 4.0 0.00 0.00 0.00 34 1006.1
20210516234514 72 49 2.0 6.0 0.00 0.00 0.00 31 1005.9
20210516234016 73 331 2.0 8.0 0.00 0.00 0.00 28 1006.0
20210516233516 73 346 2.0 5.0 0.00 0.00 0.00 30 1005.9
20210516233010 73 336 2.0 9.0 0.00 0.00 0.00 29 1005.8
20210516232508 73 5 4.0 9.0 0.00 0.00 0.00 29 1005.7
20210516232009 73 319 4.0 12.0 0.00 0.00 0.00 28 1005.6
20210516231507 73 30 6.0 12.0 0.00 0.00 0.00 29 1005.6
20210516231006 75 5 6.0 12.0 0.00 0.00 0.00 28 1005.6
20210516230505 76 334 5.0 12.0 0.00 0.00 0.00 32 1005.7
20210516230011 75 22 5.0 11.0 0.00 0.00 0.00 32 1005.7
20210516225514 75 20 6.0 11.0 0.00 0.00 0.00 34 1005.6
20210516225004 74 326 8.0 10.0 0.00 0.00 0.00 31 1005.7
20210516224503 75 355 4.0 10.0 0.00 0.00 0.00 32 1005.8
20210516224001 75 17 4.0 11.0 0.00 0.00 0.00 32 1005.9
20210516223241 74 355 0.0 9.0 0.00 0.00 0.00 39 1006.1
20210516222559 74 355 3.0 11.0 0.00 0.00 0.00 34 1006.1
20210516222100 75 309 6.0 11.0 0.00 0.00 0.00 34 1006.2
20210516221638 74 23 2.0 6.0 0.00 0.00 0.00 38 1006.3
20210516221058 74 284 0.0 10.0 0.00 0.00 0.00 41 1006.4
20210516220558 74 336 4.0 10.0 0.00 0.00 0.00 36 1006.4
20210516220133 75 22 6.0 17.0 0.00 0.00 0.00 36 1006.5
20210516215557 75 29 4.0 10.0 0.00 0.00 0.00 37 1006.6
20210516215054 74 267 4.0 9.0 0.00 0.00 0.00 37 1006.7
20210516214707 74 22 3.0 10.0 0.00 0.00 0.00 35 1006.9
20210516214051 74 339 2.0 6.0 0.00 0.00 0.00 36 1006.9
20210516213550 74 333 3.0 9.0 0.00 0.00 0.00 38 1007.1
20210516213146 74 79 4.0 10.0 0.00 0.00 0.00 42 1007.2
20210516212549 73 28 6.0 10.0 0.00 0.00 0.00 39 1007.3
20210516212104 73 309 4.0 11.0 0.00 0.00 0.00 35 1007.4
20210516211602 73 28 8.0 11.0 0.00 0.00 0.00 37 1007.4
20210516211055 74 325 2.0 10.0 0.00 0.00 0.00 46 1007.5
20210516210547 74 20 3.0 8.0 0.00 0.00 0.00 35 1007.7
20210516210132 73 348 4.0 8.0 0.00 0.00 0.00 41 1007.7
20210516205549 73 323 1.0 7.0 0.00 0.00 0.00 40 1007.8
20210516205104 73 9 0.0 6.0 0.00 0.00 0.00 41 1007.9
20210516204610 72 33 3.0 10.0 0.00 0.00 0.00 42 1007.9
20210516204113 72 55 5.0 10.0 0.00 0.00 0.00 41 1008.0
20210516203540 72 304 1.0 5.0 0.00 0.00 0.00 36 1008.1
20210516203056 72 315 2.0 10.0 0.00 0.00 0.00 41 1008.0
20210516202606 73 355 4.0 10.0 0.00 0.00 0.00 41 1008.2
20210516202059 72 22 1.0 8.0 0.00 0.00 0.00 43 1008.2
20210516201621 72 298 4.0 9.0 0.00 0.00 0.00 42 1008.3
20210516201041 73 331 6.0 10.0 0.00 0.00 0.00 40 1008.3
20210516200539 72 355 5.0 11.0 0.00 0.00 0.00 43 1008.3
20210516200056 72 26 3.0 11.0 0.00 0.00 0.00 44 1008.4
20210516195539 71 29 2.0 8.0 0.00 0.00 0.00 38 1008.5
20210516195104 71 9 3.0 10.0 0.00 0.00 0.00 43 1008.6
20210516194538 71 35 4.0 10.0 0.00 0.00 0.00 45 1008.7
20210516194041 71 319 6.0 10.0 0.00 0.00 0.00 42 1008.8
20210516193532 71 61 4.0 10.0 0.00 0.00 0.00 49 1008.8
20210516193052 71 23 3.0 10.0 0.00 0.00 0.00 48 1008.9
20210516192530 70 328 3.0 8.0 0.00 0.00 0.00 49 1008.9
20210516192031 69 74 4.0 8.0 0.00 0.00 0.00 47 1009.0
20210516191628 69 66 2.0 7.0 0.00 0.00 0.00 48 1009.1
20210516191028 69 53 3.0 11.0 0.00 0.00 0.00 51 1009.2
20210516190531 69 25 2.0 10.0 0.00 0.00 0.00 47 1009.3
20210516190130 70 54 5.0 10.0 0.00 0.00 0.00 47 1009.4
20210516185526 69 308 2.0 9.0 0.00 0.00 0.00 46 1009.5
20210516185025 69 17 5.0 9.0 0.00 0.00 0.00 49 1009.5
20210516184611 68 69 4.0 9.0 0.00 0.00 0.00 50 1009.6
20210516184036 68 13 5.0 9.0 0.00 0.00 0.00 50 1009.6
20210516183527 68 65 5.0 9.0 0.00 0.00 0.00 50 1009.7
20210516183104 68 350 4.0 9.0 0.00 0.00 0.00 48 1009.8
20210516182553 67 311 2.0 10.0 0.00 0.00 0.00 51 1009.8
20210516182029 67 39 4.0 13.0 0.00 0.00 0.00 51 1009.9
20210516181535 67 19 5.0 13.0 0.00 0.00 0.00 50 1010.0
20210516181036 67 12 4.0 11.0 0.00 0.00 0.00 50 1010.0
20210516180517 67 360 3.0 10.0 0.00 0.00 0.00 53 1010.0
20210516180100 66 355 4.0 10.0 0.00 0.00 0.00 55 1010.1
20210516175536 67 5 3.0 9.0 0.00 0.00 0.00 54 1010.2
20210516175016 66 28 4.0 9.0 0.00 0.00 0.00 52 1010.2
20210516174529 65 339 3.0 9.0 0.00 0.00 0.00 48 1010.3
20210516174020 65 69 4.0 9.0 0.00 0.00 0.00 50 1010.4
20210516173515 66 351 4.0 9.0 0.00 0.00 0.00 51 1010.4
20210516173105 64 84 1.0 9.0 0.00 0.00 0.00 50 1010.4
20210516172514 65 52 5.0 9.0 0.00 0.00 0.00 53 1010.6
20210516172021 64 346 3.0 9.0 0.00 0.00 0.00 56 1010.6
20210516171545 64 5 5.0 10.0 0.00 0.00 0.00 53 1010.6
20210516171012 64 344 5.0 10.0 0.00 0.00 0.00 54 1010.7
20210516170510 64 343 5.0 10.0 0.00 0.00 0.00 56 1010.7
20210516170015 63 351 5.0 9.0 0.00 0.00 0.00 56 1010.8
20210516165509 63 5 5.0 10.0 0.00 0.00 0.00 53 1010.9
20210516165034 62 5 4.0 10.0 0.00 0.00 0.00 58 1010.9
20210516164523 63 26 5.0 9.0 0.00 0.00 0.00 56 1011.0
20210516164016 62 31 5.0 9.0 0.00 0.00 0.00 55 1011.1
20210516163528 62 355 4.0 9.0 0.00 0.00 0.00 59 1011.1
20210516163007 61 355 2.0 9.0 0.00 0.00 0.00 62 1011.1
20210516162511 60 55 2.0 9.0 0.00 0.00 0.00 60 1011.2
20210516162004 60 29 4.0 9.0 0.00 0.00 0.00 58 1011.2
20210516161503 60 355 3.0 7.0 0.00 0.00 0.00 62 1011.4
20210516161002 59 39 4.0 9.0 0.00 0.00 0.00 59 1011.5
20210516160502 59 355 5.0 9.0 0.00 0.00 0.00 61 1011.5
20210516160129 58 5 5.0 9.0 0.00 0.00 0.00 62 1011.5
20210516155600 58 42 3.0 8.0 0.00 0.00 0.00 64 1011.5
20210516155059 58 46 3.0 8.0 0.00 0.00 0.00 67 1011.5
20210516154712 57 65 4.0 8.0 0.00 0.00 0.00 63 1011.7
20210516154058 57 55 4.0 8.0 0.00 0.00 0.00 62 1011.7
20210516153607 56 29 2.0 10.0 0.00 0.00 0.00 65 1011.7
20210516153108 56 30 4.0 10.0 0.00 0.00 0.00 66 1011.6
20210516152553 56 44 3.0 8.0 0.00 0.00 0.00 67 1011.7
20210516152107 56 59 5.0 8.0 0.00 0.00 0.00 66 1011.7
20210516151607 55 34 3.0 8.0 0.00 0.00 0.00 68 1011.8
20210516151049 55 34 5.0 8.0 0.00 0.00 0.00 70 1011.7
20210516150548 54 39 4.0 8.0 0.00 0.00 0.00 68 1011.9
20210516150123 54 15 5.0 9.0 0.00 0.00 0.00 70 1011.9
20210516145546 54 80 5.0 11.0 0.00 0.00 0.00 69 1011.9
20210516145129 53 45 4.0 11.0 0.00 0.00 0.00 69 1012.0
20210516144718 53 11 6.0 10.0 0.00 0.00 0.00 69 1012.0
20210516144044 53 24 4.0 8.0 0.00 0.00 0.00 70 1012.0
20210516143603 52 10 4.0 10.0 0.00 0.00 0.00 72 1012.0
20210516143057 52 32 6.0 10.0 0.00 0.00 0.00 72 1012.1
20210516142543 51 25 5.0 9.0 0.00 0.00 0.00 73 1012.2
20210516142045 51 38 4.0 8.0 0.00 0.00 0.00 74 1012.2
20210516141708 50 23 5.0 8.0 0.00 0.00 0.00 74 1012.2
20210516141036 50 30 4.0 8.0 0.00 0.00 0.00 75 1012.2